Location: NCO
(38.4212°N, 77.1417°W)
Time: 03:40:27
(UTC-04:00)

ISS - Visible Passes

Search period start: 21 May 2026 00:00
Search period end: 31 May 2026 00:00
Orbit: 414 x 424 km, 51.6° (Epoch: 20 May)

Date Brightness Start Highest point End Pass type
(mag) Time Alt. Az. Time Alt. Az. Time Alt. Az.
21 May -2.0 22:05:30 10° NNW 22:08:21 25° NNE 22:09:27 21° ENE visible
21 May -0.7 23:42:05 10° WNW 23:42:23 12° WNW 23:42:23 12° WNW visible
22 May -1.5 21:18:02 10° NNW 21:20:27 18° NNE 21:22:50 10° ENE visible
22 May -2.4 22:54:13 10° NW 22:56:23 37° WNW 22:56:23 37° WNW visible
23 May -3.6 22:06:29 10° NW 22:09:49 63° NE 22:10:24 51° E visible
24 May -2.7 21:18:52 10° NW 21:22:00 37° NNE 21:24:28 15° E visible
24 May -1.4 22:56:00 10° W 22:57:24 18° W 22:57:24 18° W visible
25 May -3.0 22:07:51 10° WNW 22:11:00 38° SW 22:11:30 35° SSW visible
26 May -3.7 21:19:58 10° NW 21:23:17 73° SW 21:25:39 18° SE visible
27 May -1.2 22:10:26 10° WSW 22:11:54 12° SW 22:12:48 11° SW visible
28 May -1.8 21:21:40 10° W 21:24:18 22° SW 21:26:55 10° S visible
